This is the latest recevied weather packets stored in our database for station/object WV8BRW. If no packets are shown the sender has not sent any weather packets the latest 10 day(s).
| Time | Temp. | Humidity | Pressure | Rain* | Wind** | Luminosity | Snow |
|---|---|---|---|---|---|---|---|
| 1777915391 | 20.56° C | 65% | 1009.4 hPa | 0 mm | - | 760 W/m² | - |
| 1777915086 | 20.56° C | 65% | 1009.6 hPa | 0 mm | - | 310 W/m² | - |
| 1777914784 | 21.11° C | 59% | 1009.4 hPa | 0 mm | - | 262 W/m² | - |
| 1777914481 | 21.67° C | 65% | 1009.6 hPa | 0 mm | - | 334 W/m² | - |
| 1777914178 | 21.67° C | 67% | 1009.8 hPa | 0 mm | - | 436 W/m² | - |
| 1777913874 | 21.67° C | 62% | 1009.7 hPa | 0 mm | - | 505 W/m² | - |
| 1777913571 | 21.11° C | 60% | 1009.9 hPa | 0 mm | - | 866 W/m² | - |
| 1777913267 | 21.11° C | 62% | 1009.8 hPa | 0 mm | - | 790 W/m² | - |
| 1777912964 | 21.11° C | 65% | 1010.2 hPa | 0 mm | - | 745 W/m² | - |
| 1777912660 | 21.11° C | 63% | 1010.2 hPa | 0 mm | - | 741 W/m² | - |
| 1777912356 | 20.56° C | 63% | 1010.4 hPa | 0 mm | - | 704 W/m² | - |
| 1777912053 | 20° C | 65% | 1010.3 hPa | 0 mm | - | 713 W/m² | - |
| 1777911749 | 20° C | 66% | 1010.5 hPa | 0 mm | - | 714 W/m² | - |
| 1777911446 | 20° C | 67% | 1010.4 hPa | 0 mm | - | 714 W/m² | - |
| 1777911142 | 19.44° C | 66% | 1010.6 hPa | 0 mm | - | 253 W/m² | - |
| 1777910840 | 19.44° C | 67% | 1010.7 hPa | 0 mm | - | 675 W/m² | - |
| 1777910536 | 19.44° C | 75% | 1010.8 hPa | 0 mm | - | 690 W/m² | - |
| 1777910234 | 18.33° C | 72% | 1010.8 hPa | 0 mm | - | 618 W/m² | - |
| 1777909930 | 18.33° C | 74% | 1010.9 hPa | 0 mm | - | 400 W/m² | - |
| 1777909627 | 17.78° C | 73% | 1011.4 hPa | 0 mm | - | 335 W/m² | - |
| 1777909325 | 17.78° C | 73% | 1011.4 hPa | 0 mm | - | 459 W/m² | - |
| 1777909022 | 17.78° C | 76% | 1011.2 hPa | 0 mm | - | 308 W/m² | - |
| 1777908720 | 17.22° C | 76% | 1011.3 hPa | 0 mm | - | 318 W/m² | - |
| 1777908417 | 17.22° C | 76% | 1011.3 hPa | 0 mm | - | 231 W/m² | - |
| 1777908114 | 17.78° C | 76% | 1011.2 hPa | 0 mm | - | 190 W/m² | - |
* Rain latest hour (hover to see other rain measurements)
** Current wind speed in m/s (hover to see current wind gust speed)